Regional Weather Roundup
Issued by NWS

Home | Current Version | Previous Version | Graphics & Text | Print | Product List | Glossary On
Versions: 1 2 3 4 5 6 7 8 9 10 11 12 13 14 15 16 17 18 19 20 21 22 23 24 25 26 27 28 29 30 31 32 33 34 35 36 37 38 39 40 41 42 43 44 45 46 47 48 49 50
493
ASUS45 KCYS 272010
RWRWY

WYOMING REGIONAL WEATHER ROUNDUP
NATIONAL WEATHER SERVICE CHEYENNE WY
200 PM MDT THU JUL 27 2017

NOTE:  "FAIR" INDICATES FEW OR NO CLOUDS BELOW 12,000 FEET
WITH NO SIGNIFICANT WEATHER AND/OR OBSTRUCTIONS TO VISIBILITY.

WYZ001-272100-
YELLOWSTONE NATIONAL PARK

CITY           SKY/WX    TMP DP  RH WIND       PRES   REMARKS
LK YELLOWSTONE   N/A     61  54  77 VRB3      30.37F
W YELLOWSTONE  NOT AVBL

$$
WYZ002>013-054>058-071-098>099-272100-
NORTHERN WYOMING

CITY           SKY/WX    TMP DP  RH WIND       PRES   REMARKS
JACKSON        MOSUNNY   73  52  46 W6        30.28F
CODY           FAIR      82  50  32 N8        30.11F
GREYBULL       FAIR      89  43  20 VRB3      30.02F
WORLAND        FAIR      88  48  25 N6        30.05F
SHERIDAN       FAIR      85  53  33 E7        30.05F
BUFFALO        FAIR      83  54  36 N12G17    30.11F
GILLETTE       FAIR      89  56  32 SE9G21    30.01F
HULETT         MOCLDY    75  61  60 NE14      30.05F
NEWCASTLE      FAIR      81  55  41 SE24G33   30.08F

$$
WYZ014>020-022>026-101>103-272100-
CENTRAL WYOMING

CITY           SKY/WX    TMP DP  RH WIND       PRES   REMARKS
BIG PINEY      FAIR      77  46  33 NE9       30.30F
PINEDALE       FAIR      72  43  35 N17G23    30.32F
DUBOIS         FAIR      73  41  31 NE7       30.29F
LANDER         FAIR      84  46  26 NE5       30.16F
RIVERTON       FAIR      85  46  25 SE10      30.14F
CASPER         FAIR      82  58  43 W13       30.14F
DOUGLAS        FAIR      84  55  36 CALM      30.11F

$$
WYZ021-027>030-104>119-272100-
SOUTHERN WYOMING

CITY           SKY/WX    TMP DP  RH WIND       PRES   REMARKS
EVANSTON       FAIR      78  47  33 W13G28    30.33F
KEMMERER         N/A     77  45  31 W13G20    30.33F
FORT BRIDGER   FAIR      80  41  24 W22       30.34F
ROCK SPRINGS   FAIR      83  40  21 W14G20    30.27F
RAWLINS        FAIR      82  47  29 SW15G29   30.27F
SARATOGA       MOCLDY    82  46  28 W9G18     30.29F
LARAMIE        FAIR      78  50  37 VRB5      30.29F
CHEYENNE       FAIR      82  55  39 S15       30.23F
TORRINGTON     FAIR      87  62  43 SE15      30.08F
PINE BLUFFS    FAIR      82  54  36 S12G17    30.18F

$$




USA.gov is the U.S. government's official web portal to all federal, state and local government web resources and services.